DECAYED

OBJECT H, 60752 (Decayed)

Orbit data source: Space-Track

You're viewing an Uncataloged Satellite

Recently launched and/or uncataloged satellites may have evolving metadata. Metadata may include but not limited to: Owner, Maufacturer, Bus, Motor, and Mission.

OBJECT H, 60752 was a satellite owned by Xinghe Dongli (CN) in SSO that was launched on Thu, 29 Aug 2024 UTC launched from the Yellow Sea Launch Area, China (YSLA). Unknown objects in Earth's orbit typically refer to objects detected orbiting the Earth but have not yet been identified or cataloged. These objects could be anything from previously untracked satellites, spent rocket stages, debris from satellite collisions, or even natural meteoroids temporarily captured by Earth's gravity. This object's orbit decayed before it could be identified.

Loading next visibility...
Identifier
60752, 2024-153H
Orbit
Decayed
Last TLE update
8 months ago
Origin
Manufacturer
Xinghe Dongli
Mission
Decayed spacecraft
Bus & Motor
Unknown
Mass
~50 kg wet, ~50 kg dry
Launch date (UTC)
2024-08-29 (8 months ago)
Launch vehicle
Unknown
Launch site
Yellow Sea Launch Area, China (YSLA)
Object type
Unknown
Shape & HBR
Cone, 1 m
Radar Cross Section
0.635 m², Large (>1 m²)

Expand to show TLE details & history

TLE from 8 months ago
0 OBJECT H
1 60752U 24153H   24242.34728060 -.00000069  00000-0  00000+0 0  9994
2 60752  97.3719   0.5652 0013970  33.0832  33.4934 15.22204973    28
Epoch: 2024-08-29T08:20Z
Definitive object data (Epoch: 2024-08-29T08:20:05.043Z)
Latitude
65.68107°
Longitude
-119.03337°
Altitude
502.55 km
Speed
7.624 km/s
True Right ascension
22h 56m 05s
True Declination
65° 32' 49"
Sunlit
Object was in daylight at TLE epoch
Visualization observer readout
Visualization observer readout
Orbital elements
Apogee altitude
505.756 km
Perigee altitude
486.549 km
Semi-major axis
6,874.29 km
Eccentricity
0.001397
Inclination
97.3719°
RAAN
0.5652°
Arg. of periapsis
33.0832°
True anomaly
33.58187°
Mean anomaly
33.4934°
Eccentric anomaly
33.53762°
Mean motion
3.80804 °/min
BSTAR
Unknown
Orbital period
94.54 mins
Loading maneuver chart data...
Loading SW <> Apogee altitude chart data...
Loading historical data...
Loading historical data...
Loading historical data...
Loading historical data...
Loading historical data...
Loading historical data...
Loading historical data...

OBJECT H Visibility forecast

Observer location: undefined°, undefined°

Span
Click to sort rows by Start time (UTC) header in descending order
Start Az.
Max El. time (UTC)
Max El. Az.
Max El.
End time (UTC)
End Az.
4 mins2025-05-09 21:41:17.265Z327.789° NNW2025-05-09 21:43:17.265Z289.001° WNW17.687°2025-05-09 21:45:17.265Z251.772° W
5 mins2025-05-10 08:18:17.265Z197.082° SSW2025-05-10 08:20:17.265Z264.234° W36.457°2025-05-10 08:23:17.265Z333.631° NNW
|